This demonstration page uses our WeatherBlox Daily Observations layout. Learn more.

Left ArrowRight Arrow

Hourly Observations for June 22, 2021

Temp ( °F °C ) Dew Point ( °F °C ) Humidity (%) Winds ( mph kmh ) Pressure ( in mb ) Visibility ( mi km ) Precip ( " mm )
12:53 am 00:53 Clear 60 15.6 41 5 50 50 SSW 3 6 29.73 1007 10 16 N/A
1:53 am 01:53 Clear 54 12.2 43 6.1 67 67 SW 7 11 29.73 1007 10 16 N/A
2:53 am 02:53 Clear 53 11.7 42 5.6 66 66 WSW 5 7 29.72 1007 10 16 N/A
3:53 am 03:53 Clear 50 10 41 5 71 71 W 3 6 29.72 1007 10 16 N/A
4:53 am 04:53 Clear 50 10 41 5 71 71 SW 6 9 29.72 1006 10 16 N/A
5:53 am 05:53 Sunny 50 10 41 5 71 71 W 7 11 29.72 1006 10 16 N/A
6:53 am 06:53 Sunny 58 14.4 45 7.2 62 62 WSW 8 13 29.71 1006 10 16 N/A
7:53 am 07:53 Sunny 65 18.3 46 7.8 51 51 SW 14 22 29.70 1006 10 16 N/A
8:53 am 08:53 Sunny 71 21.7 47 8.3 42 42 SW 16 26 29.70 1006 10 16 N/A
9:53 am 09:53 Sunny 77 25 48 8.9 36 36 SW 16 26 29.69 1005 10 16 N/A
10:53 am 10:53 Sunny 81 27.2 47 8.3 30 30 SW 13 20 29.68 1005 10 16 N/A
11:53 am 11:53 Sunny 86 30 47 8.3 26 26 WSW 8 13 29.66 1004 10 16 N/A
12:53 pm 12:53 Sunny 88 31.1 40 4.4 18 18 WSW 10 17 29.64 1004 10 16 N/A
1:53 pm 13:53 Sunny 90 32.2 39 3.9 17 17 WSW 15 24 29.62 1003 10 16 N/A
2:53 pm 14:53 Sunny 92 33.3 40 4.4 16 16 WSW 21 33 29.61 1003 10 16 N/A
3:53 pm 15:53 Sunny 92 33.3 42 5.6 18 18 W 17 28 29.60 1002 10 16 N/A
4:53 pm 16:53 Sunny 91 32.8 42 5.6 18 18 WSW 15 24 29.58 1002 10 16 N/A
5:53 pm 17:53 Sunny 93 33.9 42 5.6 17 17 W 16 26 29.56 1001 10 16 N/A
6:53 pm 18:53 Sunny 91 32.8 42 5.6 18 18 WSW 15 24 29.55 1001 10 16 N/A
7:53 pm 19:53 Sunny 89 31.7 42 5.6 19 19 W 21 33 29.54 1000 10 16 N/A
8:53 pm 20:53 Sunny 83 28.3 46 7.8 27 27 W 10 17 29.55 1001 10 16 N/A
9:53 pm 21:53 Clear 73 22.8 47 8.3 40 40 SW 10 17 29.57 1001 10 16 N/A
10:53 pm 22:53 Clear 68 20 47 8.3 47 47 SW 6 9 29.57 1002 10 16 N/A
11:53 pm 23:53 Clear 64 17.8 47 8.3 54 54 SW 8 13 29.57 1002 10 16 N/A

Powered by AerisWeather